Location: Unspecified
(47.8330°N, 0.0000°E)
Time: 18:21:34
(UTC+00:00)

VELOX 1 - Pass Details

Date: 02 September 2019
Orbit: 629 x 643 km, 98.2° (Epoch: 15 September)

Event Time Altitude Azimuth Distance (km) Brightness Sun altitude
Exits shadow 01:17:10 28° 349° (N) 1,187 ? -31.5°
Drops below altitude 10° 01:19:18 10° 348° (NNW) 2,030 ? -31.4°
Sets 01:21:31 0° 347° (NNW) 2,946 ? -31.3°
